Regional Weather Roundup
Issued by NWS

Home | Current Version | Previous Version | Text Only | Print | Product List | Glossary On
Versions: 1 2 3 4 5 6 7 8 9 10 11 12 13 14 15 16 17 18 19 20 21 22 23 24 25 26 27 28 29 30 31 32 33 34 35 36 37 38 39 40 41 42 43 44 45 46 47 48 49 50
339
ASUS44 KJAN 162010
RWRMS

MISSISSIPPI HOURLY WEATHER ROUNDUP
NATIONAL WEATHER SERVICE JACKSON MS
300 PM CDT TUE SEP 16 2014

NOTE: "FAIR: INDICATES FEW OR NO CLOUDS BELOW 12,000 FEET WITH NO
SIGNIFICANT WEATHER AND/OR OBSTRUCTIONS TO VISIBILITY.

MSZ001>002-007>008-010>013-018>021-025>028-034>036-162100-
NORTHWEST MISSISSIPPI

CITY           SKY/WX    TMP DP  RH WIND       PRES   REMARKS
CLARKSDALE     FAIR      86  72  62 NW5       30.05F HX  92
CLEVELAND      MOCLDY    88  67  50 CALM      30.02F HX  91
GREENWOOD      PTSUNNY   90  61  37 VRB3      30.03F HX  90
GREENVILLE     MOSUNNY   89  65  44 SW6       30.02F HX  91
GRENADA        FAIR      88  66  48 CALM      30.03F HX  90
OLIVE BRANCH   CLOUDY    72  72 100 N6        30.09F
OXFORD         FAIR      82  68  61 N3        30.06F
TUNICA         MOCLDY    79  68  69 N8        30.07F
$$

MSZ003>006-009-014>017-022>024-029>033-037>039-162100-
NORTHEAST MISSISSIPPI

CITY           SKY/WX    TMP DP  RH WIND       PRES   REMARKS
COLUMBUS AFB   PTSUNNY   88  64  45 NW3       30.01F
CORINTH        CLOUDY    77  68  73 N9        30.06F
GOLDN TRIANGLE MOSUNNY   91  66  43 N7        30.03F HX  94
STARKVILLE     FAIR      88  61  40 NW3       30.02F
TUPELO         PTSUNNY   87  68  52 VRB5      30.02F HX  90
$$

MSZ040-058-162100-
CENTRAL MISSISSIPPI

CITY           SKY/WX    TMP DP  RH WIND       PRES   REMARKS
JACKSON INTL   PTSUNNY   87  63  44 N7        30.03F
JACKSON HAWKNS LGT RAIN  88  66  48 NE5       30.03F HX  90
MERIDIAN KEY   PTSUNNY   88  68  51 N9        30.01F HX  91
MERIDIAN NAS   PTSUNNY   86  68  54 CALM      30.02F
RAYMOND        FAIR      86  81  84 N5        30.02F HX 102
VICKSBURG      PTSUNNY   86  69  56 NE9       30.03F HX  90
$$

MSZ059>079-162100-
SOUTH MISSISSIPPI

CITY           SKY/WX    TMP DP  RH WIND       PRES   REMARKS
BROOKHAVEN     FAIR      88  72  58 N7        30.03F HX  94
HATTIESBURG    LGT RAIN  82  72  71 N3        29.99F
MCCOMB         MOSUNNY   90  68  48 N8        29.99F HX  94
NATCHEZ        MOSUNNY   88  72  58 N9        30.01F HX  94
PINE BELT      PTSUNNY  N/A N/A N/A SW3       30.01F
$$

MSZ080>082-162100-
COASTAL MISSISSIPPI

CITY           SKY/WX    TMP DP  RH WIND       PRES   REMARKS
BAY ST LOUIS   TSTM      73  70  88 SE6       30.04R
BILOXI         LGT RAIN  81  77  89 SW7       29.97F
PASCAGOULA     MOSUNNY   81  77  88 VRB3      29.98F
GULFPORT       LGT RAIN  77  75  93 SW7       29.98F FOG
$$



USA.gov is the U.S. government's official web portal to all federal, state and local government web resources and services.